Simultaneous Nadir Overpasses (SNOs) Predictions

Prediction of SNOs between AQUA and NPP Satellite Orbit:

Table of predicted SNOs for the next 14.0 days since TLE Epoch: 10/1/2022
Index Date (AQUA) Time (AQUA) Lat,Lon (AQUA) SZA (AQUA ) Date (NPP) Time (NPP) Lat,Lon (NPP) SZA (NPP ) Distance(km) Time Diff (sec)
1 10/01/2022 21:16:11 -78.77, -67.21 83.61 10/01/2022 21:16:01 -78.77, -67.26 83.59 1.17 10
2 10/01/2022 22:05:27 79.14, 102.65 95.91 10/01/2022 22:06:35 79.14, 102.60 95.87 1.23 68
3 10/04/2022 12:42:22 78.90,-118.00 97.18 10/04/2022 12:42:06 78.91,-117.86 97.16 3.01 16
4 10/04/2022 13:31:40 -79.24, 51.74 83.27 10/04/2022 13:32:42 -79.25, 51.87 83.34 2.69 62
5 10/07/2022 04:08:42 -78.74,-170.49 81.65 10/07/2022 04:08:22 -78.73,-170.57 81.62 1.71 20
6 10/07/2022 04:57:58 79.11, -0.66 97.88 10/07/2022 04:58:56 79.10, -0.75 97.85 1.91 58
7 10/09/2022 19:34:57 78.69, 137.67 99.37 10/09/2022 19:34:33 78.68, 137.56 99.41 2.68 24
8 10/09/2022 20:24:14 -79.08, -52.40 81.14 10/09/2022 20:25:08 -79.07, -52.53 81.15 2.72 54
9 10/12/2022 11:01:09 -78.79, 86.72 79.83 10/12/2022 11:00:41 -78.79, 86.73 79.81 0.38 28
10 10/12/2022 11:50:25 79.16,-103.45 99.71 10/12/2022 11:51:15 79.16,-103.44 99.67 0.10 50
11 10/15/2022 02:27:20 78.80, 35.24 101.10 10/15/2022 02:26:49 78.80, 35.26 101.12 0.54 31



Historial Predications of SNOs between AQUA and NPP
